This demonstration page uses our WeatherBlox Daily Observations layout. Learn more.

36.17497, -115.13722

Hourly Observations for July 30, 2015

Temp ( °F °C ) Dew Point ( °F °C ) Humidity (%) Winds ( mph kmh ) Pressure ( in mb ) Visibility ( mi km ) Precip ( " mm )
12:53 am 00:53 Clear 91 32.8 51 10.6 26 26 W 8 13 29.92 1013 10 16.0934 0 0
1:53 am 01:53 Clear 89 31.7 51 10.6 27 27 Calm 29.93 1014 10 16.0934 0 0
2:53 am 02:53 Clear 88 31.1 51 10.6 28 28 NW 3 6 29.94 1014 10 16.0934 0 0
3:53 am 03:53 Clear 86 30 50 10 29 29 N 5 7 29.95 1014 10 16.0934 0 0
4:53 am 04:53 Clear 85 29.4 49 9.4 29 29 NW 8 13 29.96 1015 10 16.0934 0 0
5:53 am 05:53 Sunny 85 29.4 49 9.4 29 29 WNW 5 7 29.98 1015 10 16.0934 0 0
6:53 am 06:53 Sunny 86 30 49 9.4 28 28 NNW 6 9 29.99 1016 10 16.0934 0 0
7:53 am 07:53 Sunny 88 31.1 48 8.9 25 25 NNE 8 13 30.01 1016 10 16.0934 0 0
8:53 am 08:53 Sunny 90 32.2 55 12.8 31 31 E 7 11 30.03 1017 10 16.0934 0 0
9:53 am 09:53 Sunny 94 34.4 52 11.1 24 24 VRB 3 6 30.03 1017 10 16.0934 0 0
10:53 am 10:53 Sunny 97 36.1 49 9.4 20 20 E 6 9 30.03 1017 10 16.0934 0 0
11:53 am 11:53 Sunny 98 36.7 50 10 20 20 NNE 7 11 30.01 1016 10 16.0934 0 0
12:53 pm 12:53 Sunny 99 37.2 49 9.4 18 18 NNW 6 9 29.98 1015 10 16.0934 0 0
1:53 pm 13:53 Sunny 101 38.3 49 9.4 17 17 NNW 5 7 29.96 1015 10 16.0934 0 0
2:53 pm 14:53 Sunny 102 38.9 48 8.9 16 16 E 8 13 29.93 1014 10 16.0934 0 0
3:53 pm 15:53 Sunny 102 38.9 46 7.8 15 15 VRB 3 6 29.9 1013 10 16.0934 0 0
4:53 pm 16:53 Sunny 103 39.4 45 7.2 14 14 S 9 15 29.9 1012 10 16.0934 0 0
5:53 pm 17:53 Sunny 104 40 44 6.7 13 13 S 5 7 29.88 1012 10 16.0934 0 0
6:53 pm 18:53 Sunny 98 36.7 54 12.2 23 23 S 26 43 29.89 1012 10 16.0934 0 0
7:53 pm 19:53 Clear 93 33.9 56 13.3 29 29 SSE 29 46 29.98 1015 10 16.0934 0 0
8:53 pm 20:53 Clear 92 33.3 56 13.3 30 30 SSE 13 20 30.01 1016 10 16.0934 0 0
9:53 pm 21:53 Clear 92 33.3 55 12.8 29 29 SW 12 19 30 1016 10 16.0934 0 0
10:53 pm 22:53 Clear 92 33.3 54 12.2 28 28 W 13 20 29.98 1015 10 16.0934 0 0
11:53 pm 23:53 Clear 92 33.3 53 11.7 27 27 W 8 13 29.96 1015 10 16.0934 0 0

Powered by AerisWeather